Content
SEND FEEDBACK

Daily
Averages
Monthly
Summary
United States of America

HANALEI, HAWAII


Home > North America > United States > Hawaii
Elevation: 14 feet     Latitude: 22 02N     Longitude: 159 47W

WEATHER
 
SELECT A DAY
Number of Records: 72,468;   Date Range: 1/3/95 - 9/16/14
 
SHARE

PRINT THIS DATA

[ ← Previous Day ]
WEATHER ALMANAC - JANUARY 23, 2013
[ Next Day → ]
[ °C ]   °F
Weather ElementAverageHighLow
Temperature72.2 °F79 °F (2:56 pm)66 °F (12:56 am)
Dewpoint63.1 °F68 °F (8:56 am)59 °F (6:56 am)
Humidity74 %93 % (4:56 am)54 % (2:56 pm)
Barometer30.06 in30.10 in (10:56 am)30.02 in (3:56 pm)
Wind Speed3.9 mph6.9 mph (3:56 pm)
Weather ElementAverage
Visibility10 mi
Wind DirectionSSE (142 °)

Weather ElementTotal
Precipitation---
Cooling Degree Days7.5 (Base 65)
Growing Degree Days22.5 (Base 50)
Averaged from 25 records on January 23, 2013
WEATHER CONDITIONS BREAKOUT
WIND DIRECTION BREAKOUT
WEATHER BY HOUR - JANUARY 23, 2013
[ °C ]   °F
Local TimeTemperatureDewpointHumidityBarometerVisibilityWind DirectionWind SpeedGust SpeedPrecipitationEventsConditions
12:56 AM66.0 °F61.0 °F84 %30.08 in10.0 miESE (120°)3.5 mphMostly Cloudy
1:56 AM68.0 °F63.0 °F84 %30.07 in10.0 miESE (120°)5.8 mphClear
2:56 AM66.9 °F61.0 °F81 %30.05 in10.0 miENE (70°)4.6 mphClear
3:56 AM66.0 °F61.0 °F84 %30.05 in10.0 miENE (70°)4.6 mphClear
4:56 AM66.9 °F64.9 °F93 %30.04 in10.0 miEast (100°)4.6 mphOvercast
5:56 AM68.0 °F62.1 °F81 %30.06 in10.0 miENE (70°)4.6 mphOvercast
6:56 AM66.9 °F59.0 °F76 %30.06 in10.0 miESE (120°)3.5 mphPartly Cloudy
7:56 AM66.0 °F64.0 °F93 %30.07 in10.0 miEast (90°)4.6 mphClear
8:56 AM73.9 °F68.0 °F82 %30.08 in10.0 miCalmMostly Cloudy
9:02 AM73.4 °F68.0 °F83 %30.07 in10.0 miCalmMostly Cloudy
9:56 AM75.9 °F61.0 °F60 %30.09 in10.0 miVariable3.5 mphClear
10:56 AM77.0 °F63.0 °F62 %30.10 in10.0 miNNW (330°)4.6 mphMostly Cloudy
11:56 AM77.0 °F63.0 °F62 %30.09 in10.0 miNW (320°)4.6 mphOvercast
12:56 PM75.9 °F61.0 °F60 %30.06 in10.0 miNW (310°)4.6 mphOvercast
1:56 PM75.9 °F61.0 °F60 %30.04 in10.0 miCalmOvercast
2:56 PM79.0 °F61.0 °F54 %30.03 in10.0 miNNW (340°)4.6 mphMostly Cloudy
3:56 PM78.1 °F62.1 °F58 %30.02 in10.0 miSW (230°)6.9 mphMostly Cloudy
4:56 PM78.1 °F61.0 °F56 %30.02 in10.0 miWest (280°)5.8 mphOvercast
5:56 PM75.9 °F63.0 °F64 %30.03 in10.0 miNNW (340°)4.6 mphOvercast
6:56 PM75.0 °F66.9 °F76 %30.04 in10.0 miNorth (350°)5.8 mphMostly Cloudy
7:56 PM73.9 °F66.9 °F79 %30.06 in10.0 miNE (40°)3.5 mphPartly Cloudy
8:56 PM70.0 °F62.1 °F76 %30.06 in10.0 miEast (80°)3.5 mphMostly Cloudy
9:56 PM71.1 °F64.0 °F78 %30.07 in10.0 miEast (100°)3.5 mphMostly Cloudy
10:56 PM71.1 °F64.9 °F81 %30.06 in10.0 miCalmMostly Cloudy
11:56 PM69.1 °F64.0 °F84 %30.06 in10.0 miENE (70°)5.8 mphPartly Cloudy
Hourly data recorded from PHBK, located miles away from Hanalei, Hawaii







STORIES FROM OUR PARTNERS